SL-16 DEB, 39886

Orbit data source: Space-Track

SL-16 DEB, 39886 is space debris in LEO originally from a launch on Fri, 26 Mar 1993 UTC launched from the Tyuratam Missile And Space Complex (TTMTR). Debris objects in space refer to the collection of defunct objects orbiting the Earth. Examples of debris include non-operational satellites, rocket bodies, and fragments generated from explosions, collisions, or faulty payload assembly.

Loading next visibility...
Identifier
39886, 1993-016BL
Orbit
LEO
Country
Flag of CISCIS
Related business
Manufacturer
Unknown
Mission
Spacecraft
Bus & Motor
Unknown
Mass
Unknown
Launch date (UTC)
1993-03-26 (33 years ago)
Launch vehicle
Unknown
Launch site
Tyuratam Missile And Space Complex (TTMTR)
Object type
Payload
Rocket body
Debris
Shape & HBR
Unknown shape, 0.1 m
Radar Cross Section
Small (<0.1 m²)

Expand to show TLE details & history
Last TLE update: 4 days ago

TLE from 4 days ago
0 SL-16 DEB
1 39886U 93016BL  25350.34348335  .00003610  00000-0  51078-3 0  9995
2 39886  71.0087  13.9714 0045271 164.4592 195.7966 14.77131928615271
Epoch: 2025-12-16T08:14Z
TLE epoch observation values (Epoch: 2025-12-16T08:14:36.961Z)
Latitude
-0.00002°
Longitude
165.08834°
Altitude
671.443 km
Speed
7.505 km/s
True Right ascension
00h 55m 53s
True Declination
0° 00' 00"
Sunlit
Object was in daylight at epoch
Visualization orbit readout
Latitude
Unknown
Longitude
Unknown
Altitude
Unknown
Speed
Unknown
Apparent Right ascension
Unknown
Apparent Declination
Unknown
Sunlit
N/A
Visualization observer readout
Local Sidereal Time
20:13:21
Azimuth
Unknown
Elevation
Unknown
Doppler factor
Unknown
Orbital elements
Apogee altitude
668.01 km
Perigee altitude
604.5 km
Semi-major axis
7,014.392 km
Eccentricity
0.00453
Inclination
71.0087°
RAAN
13.9714°
Arg. of periapsis
164.4592°
True anomaly
195.65614°
Mean anomaly
195.7966°
Eccentric anomaly
195.7263°
Mean motion
3.69452 °/min
Orbital period
97.44 mins
BSTAR
0.00051078
Loading maneuver chart data...
Computing Atmospheric mass density...
Loading historical data...
Loading historical data...
Loading historical data...
Loading historical data...
Loading historical data...
Loading historical data...
Loading historical data...

Documentation

Showing up to 5 results
|